#timestamp,LO_Frequency,Hit,StdDev 
1608404415.9,286047005.3,P
1608404435.7,286047007.2,Y
1608404455.6,286047000.4,P
1608404475.4,286046999.8,N
1608404495.2,286047002.4,N
1608404515.1,286047002.4,N
1608404516.0,286047002.4,N
1608404535.8,286047003.6,N
1608404555.6,286047003.1,N
1608404575.5,286047003.8,N
1608404595.3,286047006.0,Y
1608404615.1,286047001.6,P
1608404635.9,286047002.2,P
1608404655.7,286047001.3,P
1608404675.5,286047001.4,N
1608404695.4,286047000.2,N
1608404715.2,286047000.4,N
1608404735.0,286047002.2,N
1608404735.9,286047002.2,N
1608404755.8,286047001.6,N
1608404775.6,286047001.3,N
1608404795.4,286047003.3,Y
1608404815.3,286047001.6,P
1608404835.1,286047002.7,P
1608404855.8,286047004.3,P
1608404875.7,286047003.8,Y
1608404895.5,286047000.4,P
1608404915.3,286047000.4,N
1608404935.2,286047002.6,N
1608404955.0,286047002.4,N
1608404955.9,286047002.4,N
1608404975.7,286047001.7,N
1608404995.6,286047004.2,Y
1608405015.4,286047001.4,P
1608405035.2,286047002.3,P
1608405055.1,286047002.3,P
1608405056.0,286047002.3,Y
1608405075.8,286047000.0,P
1608405095.6,286047001.8,N
1608405115.5,286047001.3,N
1608405135.3,286047001.6,N
1608405155.1,286047001.8,N
1608405175.9,286047003.5,Y
1608405195.7,286047002.3,P
1608405215.5,286047004.0,P
1608405235.4,286047001.7,N
1608405255.2,286047003.0,N
1608405275.1,286047003.6,Y
1608405276.0,286047003.6,P
1608405295.8,286047001.5,N
1608405315.6,286047002.2,N
1608405335.5,286047002.4,Y
1608405355.3,286047000.4,P
1608405375.1,286047000.5,N
1608405395.9,286046999.0,N
1608405415.7,286047001.1,N
1608405435.5,286047002.5,N
1608405455.4,286047002.1,N
1608405475.2,286047001.9,N
1608405495.0,286047003.8,Y
1608405495.9,286047003.8,P
1608405515.8,286047003.8,N
1608405535.6,286047004.0,P
1608405555.4,286047003.7,Y
1608405575.3,286047000.5,P
1608405595.1,286047000.7,N
1608405596.0,286047000.7,N
1608405615.8,286047000.2,N
1608405635.7,286046999.3,N
1608405655.5,286046999.7,N
1608405675.3,286047000.3,N
1608405695.2,286046999.9,N
1608405715.9,286047000.1,N
1608405735.7,286047000.6,N
1608405755.6,286047002.3,N
1608405775.4,286047002.3,N
1608405795.2,286047003.9,Y
1608405815.1,286047002.0,P
1608405816.0,286047002.0,P
1608405835.8,286047001.8,P
1608405855.6,286047001.4,N
1608405875.5,286047001.5,Y
1608405895.3,286047000.5,P
1608405915.1,286047000.8,N
1608405935.9,286047000.7,N
1608405955.7,286046998.6,Y
1608405975.5,286046997.0,P
1608405995.4,286046996.9,N
1608406015.2,286046996.5,N
1608406035.0,286046999.5,N
1608406035.9,286046999.5,N
1608406055.8,286046996.5,N
1608406075.6,286046996.9,N
1608406095.4,286046996.9,N
1608406115.3,286046999.3,N
1608406135.1,286046999.2,N
1608406136.0,286046999.2,N
1608406155.8,286046996.6,N
1608406175.7,286047000.8,N
1608406195.5,286046999.0,N
1608406215.3,286046997.5,N
1608406235.2,286046997.8,N
1608406255.9,286046996.8,N
1608406275.7,286046996.7,N
1608406295.6,286046996.8,N
1608406315.4,286046997.2,N
1608406335.2,286046996.1,N
1608406355.1,286046995.7,N
1608406356.0,286046995.7,N
1608406375.8,286046997.5,N
1608406395.6,286046999.1,N
1608406415.5,286046995.0,Y
1608406435.3,286046998.6,P
1608406455.1,286046998.3,P
1608406475.9,286046997.0,P
1608406495.7,286046998.4,N
1608406515.5,286046998.7,N
1608406535.4,286046998.4,N
1608406555.2,286046998.4,N
1608406575.0,286046999.0,N
1608406575.9,286046999.0,N
1608406595.8,286046999.0,N
1608406615.6,286047001.1,N
1608406635.4,286046998.1,N
1608406655.2,286046998.3,N
1608406675.1,286046998.7,N
1608406676.0,286046998.7,N
1608406695.8,286046997.1,Y
1608406715.6,286047001.0,P
1608406735.5,286046998.5,N
1608406755.3,286047000.7,N
1608406775.1,286046998.8,N
1608406795.9,286046999.4,N
1608406815.7,286046999.2,N
1608406835.5,286046998.8,N
1608406855.4,286046999.3,N
1608406875.2,286046998.9,N
1608406895.0,286046998.3,N
1608406895.9,286046998.3,N
1608406915.8,286046998.8,N
1608406935.6,286046999.1,N
1608406955.4,286046996.5,Y
1608406975.3,286046996.9,P
1608406995.1,286046997.8,N
1608407015.8,286046997.9,N
1608407035.7,286046997.4,Y
1608407055.5,286047000.8,P
1608407075.3,286047000.9,N
1608407095.2,286046998.5,N
1608407115.0,286046999.0,N
1608407115.9,286046999.0,N
1608407135.7,286046999.4,N
1608407155.6,286046997.1,N
1608407175.4,286046997.3,N
1608407195.2,286046997.3,N
1608407215.1,286046995.3,Y
1608407216.0,286046995.3,P
1608407235.8,286046997.3,N
1608407255.6,286046996.8,N
1608407275.5,286046997.6,N
1608407295.3,286046994.9,Y
1608407315.1,286046998.1,P
1608407335.9,286047001.0,N
1608407355.7,286047001.2,N
1608407375.5,286047001.2,N
1608407395.4,286046998.9,N
1608407415.2,286046997.2,N
1608407435.0,286046997.1,N
1608407435.9,286046997.1,N
1608407455.8,286046997.2,N
1608407475.6,286046997.4,N
1608407495.4,286046997.6,N
1608407515.3,286046997.5,N
1608407535.1,286046997.3,N
1608407555.8,286046997.8,N
1608407575.7,286046997.2,N
1608407595.5,286046997.6,N
1608407615.3,286046994.9,Y
1608407635.2,286046999.2,P
1608407655.9,286046996.8,P
1608407675.7,286046997.5,N
1608407695.6,286046998.0,N
1608407715.4,286046995.2,Y
1608407735.2,286046996.9,P
1608407755.1,286046996.8,P
1608407756.0,286046996.8,P
1608407775.8,286046996.9,Y
1608407795.6,286047000.5,P
1608407815.5,286047002.4,N
1608407835.3,286047002.3,N
1608407855.1,286046999.8,N
1608407875.9,286047000.5,N
1608407895.7,286046998.1,N
1608407915.5,286046998.3,N
1608407935.4,286046997.0,N
1608407955.2,286046999.1,N
1608407975.0,286046996.6,N
1608407975.9,286046996.6,N
1608407995.8,286046996.9,N
